QPF
0.02 0.03 0.03 0.03 0.04 0.04 0.02 0.01 0.01 0.01 0.02 0.02 0.02 0.02 0.02 0.02 0.01 0.01 0.03 0.07 0.09 0.09 0.09 0.10 0.11 0.10 0.11 0.14 0.11 0.08 0.08 0.07 0.06 0.05 0.05 0.06 0.06 0.05 0.07 0.08 0.10 0.09 0.08
0.03 0.04 0.05 0.04 0.05 0.04 0.03 0.02 0.02 0.02 0.03 0.03 0.02 0.02 0.01 0.01 0.01 0.01 0.02 0.04 0.06 0.07 0.07 0.08 0.09 0.09 0.06 0.07 0.06 0.06 0.04 0.05 0.06 0.07 0.06 0.06 0.07 0.08 0.08 0.08 0.09 0.09 0.09
0.03 0.04 0.06 0.07 0.06 0.04 0.03 0.02 0.02 0.02 0.02 0.02 0.01 0.01 0.02 0.02 0.01 0.01 0.01 0.01 0.02 0.02 0.03 0.05 0.08 0.09 0.08 0.07 0.07 0.06 0.05 0.06 0.06 0.07 0.06 0.06 0.07 0.07 0.05 0.05 0.06 0.07 0.09
0.05 0.05 0.05 0.06 0.05 0.04 0.03 0.02 0.01 0.01 0.01 0.01 0.01 0.01 0.01 0.02 0.02 0.01 0.01 0.01 0.01 0.01 0.01 0.04 0.07 0.10 0.10 0.09 0.09 0.08 0.07 0.06 0.05 0.05 0.06 0.07 0.08 0.08 0.08 0.08 0.07 0.08 0.08
0.09 0.08 0.06 0.04 0.04 0.03 0.02 0.02 0.02 0.02 0.01 0.01 0.01 0.01 0.01 0.02 0.02 0.02 0.02 0.01 0.01 0.01 0.01 0.01 0.03 0.06 0.06 0.08 0.09 0.09 0.07 0.06 0.06 0.06 0.06 0.05 0.05 0.03 0.03 0.04 0.03 0.03 0.03
0.04 0.05 0.04 0.03 0.02 0.01 0.00 0.00 0.01 0.01 0.01 0.01 0.02 0.02 0.03 0.03 0.03 0.02 0.02 0.02 0.02 0.01 0.01 0.00 0.00 0.01 0.02 0.04 0.06 0.07 0.06 0.05 0.04 0.04 0.04 0.03 0.03 0.02 0.01 0.01 0.01 0.02 0.02
0.03 0.03 0.02 0.01 0.01 0.00 0.00 0.01 0.01 0.00 0.01 0.01 0.02 0.02 0.03 0.04 0.03 0.04 0.03 0.03 0.03 0.02 0.01 0.01 0.01 0.00 0.01 0.02 0.04 0.04 0.04 0.04 0.03 0.03 0.04 0.03 0.04 0.04 0.03 0.02 0.02 0.03 0.03
0.04 0.03 0.02 0.01 0.01 0.00 0.00 0.00 0.00 0.00 0.00 0.00 0.01 0.01 0.03 0.03 0.03 0.03 0.03 0.04 0.03 0.03 0.02 0.01 0.01 0.00 0.00 0.00 0.01 0.03 0.02 0.02 0.03 0.02 0.02 0.02 0.01 0.03 0.04 0.02 0.02 0.02 0.03
0.02 0.03 0.04 0.02 0.02 0.01 0.01 0.01 0.01 0.01 0.01 0.01 0.00 0.01 0.02 0.02 0.02 0.02 0.02 0.02 0.03 0.03 0.02 0.02 0.01 0.00 0.00 0.00 0.00 0.00 0.00 0.01 0.02 0.02 0.02 0.02 0.02 0.02 0.02 0.02 0.02 0.03 0.03
0.02 0.03 0.03 0.02 0.02 0.03 0.02 0.01 0.01 0.02 0.02 0.01 0.00 0.00 0.01 0.01 0.01 0.01 0.01 0.01 0.01 0.01 0.01 0.01 0.00 0.00 0.00 0.00 0.00 0.00 0.00 0.00 0.00 0.01 0.01 0.01 0.01 0.02 0.02 0.03 0.04 0.05 0.04
0.03 0.02 0.01 0.01 0.02 0.02 0.02 0.02 0.01 0.01 0.01 0.00 0.00 0.00 0.01 0.01 0.01 0.01 0.01 0.01 0.00 0.00 0.00 0.00 0.00 0.00 0.00 0.00 0.00 0.00 0.00 0.00 0.00 0.01 0.01 0.01 0.01 0.01 0.02 0.02 0.03 0.04 0.06
0.03 0.02 0.01 0.01 0.01 0.01 0.01 0.02 0.02 0.01 0.01 0.00 0.00 0.00 0.01 0.01 0.01 0.01 0.01 0.01 0.01 0.00 0.00 0.00 0.00 0.00 0.00 0.00 0.00 0.00 0.00 0.00 0.00 0.00 0.01 0.01 0.01 0.01 0.01 0.02 0.02 0.03 0.06
0.01 0.01 0.01 0.01 0.01 0.01 0.01 0.01 0.02 0.01 0.01 0.01 0.01 0.01 0.01 0.01 0.01 0.01 0.01 0.01 0.01 0.00 0.00 0.00 0.00 0.00 0.00 0.00 0.00 0.00 0.00 0.00 0.00 0.00 0.00 0.00 0.00 0.01 0.01 0.01 0.01 0.02 0.02
0.01 0.01 0.01 0.01 0.02 0.02 0.01 0.01 0.01 0.01 0.01 0.02 0.02 0.02 0.01 0.00 0.01 0.01 0.01 0.01 0.01 0.00 0.00 0.00 0.00 0.00 0.00 0.00 0.00 0.00 0.00 0.00 0.00 0.00 0.00 0.00 0.00 0.00 0.00 0.00 0.01 0.01 0.02
0.01 0.01 0.01 0.01 0.02 0.03 0.02 0.02 0.01 0.01 0.01 0.02 0.02 0.02 0.02 0.01 0.01 0.01 0.01 0.01 0.01 0.01 0.00 0.00 0.00 0.00 0.00 0.00 0.00 0.00 0.00 0.00 0.00 0.00 0.00 0.00 0.00 0.00 0.00 0.00 0.00 0.01 0.01
0.01 0.01 0.01 0.01 0.02 0.03 0.03 0.02 0.02 0.02 0.02 0.02 0.02 0.02 0.02 0.02 0.02 0.01 0.01 0.01 0.01 0.01 0.01 0.01 0.00 0.00 0.00 0.00 0.00 0.00 0.00 0.00 0.00 0.00 0.00 0.00 0.00 0.00 0.00 0.00 0.00 0.00 0.00
0.02 0.01 0.02 0.02 0.02 0.02 0.03 0.02 0.02 0.02 0.02 0.02 0.01 0.01 0.01 0.02 0.02 0.02 0.02 0.01 0.01 0.01 0.01 0.01 0.01 0.00 0.00 0.01 0.00 0.00 0.00 0.00 0.00 0.00 0.00 0.00 0.00 0.00 0.00 0.01 0.01 0.00 0.00
0.04 0.02 0.02 0.02 0.02 0.01 0.02 0.01 0.01 0.01 0.02 0.02 0.01 0.01 0.01 0.01 0.01 0.02 0.01 0.01 0.01 0.02 0.01 0.01 0.01 0.01 0.01 0.01 0.00 0.01 0.00 0.00 0.00 0.00 0.00 0.00 0.00 0.01 0.02 0.02 0.02 0.01 0.01
0.06 0.04 0.02 0.02 0.02 0.01 0.01 0.01 0.01 0.01 0.01 0.01 0.02 0.02 0.02 0.01 0.01 0.02 0.01 0.02 0.02 0.02 0.01 0.01 0.01 0.01 0.01 0.00 0.00 0.00 0.00 0.01 0.00 0.00 0.01 0.01 0.02 0.03 0.03 0.01 0.01 0.01 0.01
0.05 0.05 0.02 0.02 0.02 0.02 0.02 0.02 0.01 0.01 0.01 0.01 0.02 0.02 0.02 0.02 0.02 0.02 0.02 0.02 0.02 0.02 0.02 0.01 0.01 0.01 0.00 0.00 0.01 0.00 0.00 0.00 0.00 0.00 0.01 0.02 0.03 0.03 0.01 0.01 0.02 0.01 0.01
0.04 0.05 0.04 0.03 0.02 0.02 0.02 0.02 0.02 0.01 0.01 0.01 0.01 0.01 0.02 0.02 0.02 0.02 0.02 0.01 0.01 0.01 0.01 0.02 0.01 0.01 0.01 0.01 0.01 0.01 0.00 0.00 0.00 0.01 0.02 0.03 0.03 0.02 0.01 0.02 0.04 0.03 0.02
0.04 0.05 0.06 0.05 0.04 0.03 0.03 0.02 0.02 0.02 0.01 0.01 0.01 0.01 0.01 0.01 0.01 0.02 0.01 0.01 0.01 0.01 0.01 0.01 0.01 0.01 0.01 0.01 0.01 0.01 0.00 0.00 0.00 0.00 0.02 0.03 0.03 0.03 0.03 0.03 0.06 0.06 0.07
0.02 0.03 0.05 0.05 0.05 0.04 0.05 0.04 0.03 0.02 0.02 0.02 0.02 0.02 0.01 0.01 0.01 0.01 0.01 0.01 0.01 0.01 0.01 0.01 0.01 0.02 0.02 0.02 0.02 0.01 0.00 0.00 0.00 0.01 0.02 0.03 0.03 0.04 0.04 0.04 0.06 0.08 0.09
0.02 0.02 0.03 0.04 0.04 0.04 0.05 0.04 0.05 0.04 0.03 0.02 0.02 0.02 0.01 0.01 0.01 0.01 0.01 0.01 0.01 0.01 0.00 0.00 0.01 0.02 0.03 0.03 0.03 0.02 0.01 0.01 0.01 0.01 0.01 0.02 0.03 0.04 0.04 0.04 0.05 0.07 0.07
0.02 0.03 0.03 0.04 0.03 0.03 0.03 0.03 0.03 0.03 0.04 0.03 0.03 0.02 0.02 0.01 0.01 0.01 0.01 0.00 0.00 0.00 0.00 0.00 0.01 0.01 0.03 0.03 0.04 0.03 0.02 0.01 0.01 0.01 0.01 0.02 0.02 0.03 0.04 0.05 0.05 0.06 0.06
0.02 0.02 0.02 0.03 0.03 0.02 0.02 0.02 0.03 0.02 0.03 0.03 0.03 0.03 0.03 0.02 0.02 0.02 0.01 0.00 0.00 0.00 0.00 0.00 0.00 0.01 0.01 0.02 0.02 0.03 0.03 0.03 0.02 0.01 0.01 0.01 0.02 0.03 0.04 0.05 0.05 0.05 0.05
MSLP
1018.27 1018.45 1018.55 1018.58 1018.55 1018.47 1018.39 1018.31 1018.26 1018.25 1018.26 1018.26 1018.23 1018.13 1017.93 1017.61 1017.17 1016.62 1015.99 1015.33 1014.67 1014.08 1013.59 1013.25 1013.07 1013.06 1013.21 1013.47 1013.81 1014.19 1014.58 1014.94 1015.26 1015.54 1015.77 1015.99 1016.18 1016.38 1016.58 1016.78 1016.98 1017.17 1017.37
1018.55 1018.77 1018.92 1019.01 1019.03 1019.01 1018.97 1018.94 1018.94 1018.98 1019.05 1019.12 1019.15 1019.13 1018.99 1018.74 1018.34 1017.81 1017.18 1016.49 1015.80 1015.16 1014.61 1014.20 1013.95 1013.86 1013.92 1014.08 1014.33 1014.61 1014.91 1015.20 1015.46 1015.70 1015.93 1016.14 1016.35 1016.57 1016.79 1017.00 1017.21 1017.41 1017.59
1018.76 1019.03 1019.25 1019.41 1019.51 1019.56 1019.59 1019.61 1019.66 1019.75 1019.86 1019.99 1020.09 1020.13 1020.07 1019.88 1019.54 1019.05 1018.45 1017.77 1017.06 1016.39 1015.80 1015.32 1015.00 1014.82 1014.77 1014.83 1014.96 1015.14 1015.33 1015.53 1015.72 1015.92 1016.11 1016.32 1016.54 1016.77 1017.01 1017.25 1017.47 1017.68 1017.87
1018.93 1019.25 1019.54 1019.79 1019.97 1020.10 1020.20 1020.28 1020.38 1020.50 1020.65 1020.82 1020.97 1021.08 1021.09 1020.98 1020.73 1020.31 1019.76 1019.12 1018.43 1017.74 1017.12 1016.59 1016.19 1015.92 1015.77 1015.72 1015.73 1015.80 1015.88 1015.98 1016.10 1016.23 1016.39 1016.58 1016.80 1017.04 1017.29 1017.55 1017.79 1018.02 1018.23
1019.05 1019.41 1019.77 1020.09 1020.36 1020.57 1020.74 1020.87 1021.01 1021.15 1021.33 1021.53 1021.73 1021.91 1022.01 1021.99 1021.84 1021.53 1021.07 1020.49 1019.84 1019.17 1018.53 1017.97 1017.50 1017.15 1016.90 1016.74 1016.65 1016.61 1016.59 1016.60 1016.64 1016.72 1016.83 1016.99 1017.19 1017.42 1017.68 1017.94 1018.20 1018.44 1018.66
1019.12 1019.50 1019.90 1020.29 1020.63 1020.91 1021.13 1021.31 1021.46 1021.63 1021.82 1022.05 1022.30 1022.54 1022.73 1022.84 1022.81 1022.63 1022.30 1021.82 1021.25 1020.63 1020.00 1019.42 1018.91 1018.49 1018.15 1017.90 1017.72 1017.58 1017.48 1017.42 1017.39 1017.41 1017.48 1017.60 1017.77 1017.97 1018.21 1018.46 1018.71 1018.96 1019.19
1019.13 1019.50 1019.92 1020.34 1020.73 1021.06 1021.32 1021.53 1021.70 1021.87 1022.07 1022.32 1022.61 1022.93 1023.23 1023.47 1023.59 1023.57 1023.39 1023.05 1022.59 1022.04 1021.46 1020.88 1020.34 1019.88 1019.49 1019.17 1018.91 1018.70 1018.53 1018.41 1018.33 1018.31 1018.33 1018.41 1018.54 1018.71 1018.91 1019.13 1019.35 1019.58 1019.80
1019.06 1019.40 1019.81 1020.25 1020.66 1021.02 1021.30 1021.51 1021.69 1021.86 1022.06 1022.33 1022.68 1023.07 1023.48 1023.85 1024.14 1024.29 1024.29 1024.11 1023.79 1023.35 1022.83 1022.29 1021.75 1021.26 1020.84 1020.47 1020.16 1019.90 1019.70 1019.54 1019.43 1019.37 1019.35 1019.39 1019.48 1019.60 1019.75 1019.92 1020.10 1020.29 1020.48
1018.94 1019.23 1019.61 1020.04 1020.45 1020.80 1021.09 1021.30 1021.47 1021.64 1021.85 1022.14 1022.52 1022.98 1023.49 1024.00 1024.45 1024.78 1024.96 1024.95 1024.78 1024.46 1024.04 1023.56 1023.05 1022.57 1022.12 1021.73 1021.40 1021.12 1020.89 1020.71 1020.58 1020.50 1020.46 1020.47 1020.52 1020.59 1020.69 1020.80 1020.92 1021.06 1021.21
1018.79 1019.03 1019.37 1019.76 1020.15 1020.50 1020.77 1020.98 1021.14 1021.30 1021.51 1021.81 1022.22 1022.74 1023.33 1023.96 1024.55 1025.04 1025.38 1025.54 1025.53 1025.34 1025.03 1024.62 1024.17 1023.71 1023.28 1022.89 1022.54 1022.25 1022.01 1021.82 1021.69 1021.59 1021.54 1021.53 1021.55 1021.58 1021.63 1021.69 1021.76 1021.85 1021.95
1018.65 1018.84 1019.13 1019.49 1019.85 1020.18 1020.45 1020.65 1020.80 1020.96 1021.16 1021.46 1021.88 1022.43 1023.08 1023.78 1024.47 1025.08 1025.56 1025.87 1026.00 1025.95 1025.75 1025.44 1025.06 1024.65 1024.25 1023.87 1023.53 1023.24 1022.99 1022.80 1022.66 1022.57 1022.51 1022.49 1022.49 1022.50 1022.52 1022.55 1022.57 1022.61 1022.66
1018.56 1018.71 1018.96 1019.28 1019.62 1019.93 1020.19 1020.38 1020.53 1020.68 1020.88 1021.17 1021.59 1022.14 1022.80 1023.53 1024.28 1024.97 1025.55 1025.97 1026.22 1026.29 1026.21 1026.00 1025.71 1025.37 1025.01 1024.65 1024.33 1024.04 1023.80 1023.61 1023.46 1023.37 1023.31 1023.29 1023.29 1023.30 1023.31 1023.32 1023.32 1023.33 1023.35
1018.52 1018.65 1018.88 1019.17 1019.49 1019.78 1020.04 1020.23 1020.39 1020.54 1020.73 1021.00 1021.39 1021.92 1022.55 1023.27 1024.02 1024.74 1025.37 1025.86 1026.21 1026.39 1026.42 1026.33 1026.13 1025.87 1025.57 1025.26 1024.96 1024.69 1024.45 1024.25 1024.10 1024.00 1023.95 1023.93 1023.94 1023.97 1023.99 1024.01 1024.01 1024.01 1024.02
1018.54 1018.66 1018.87 1019.14 1019.45 1019.74 1019.99 1020.20 1020.36 1020.52 1020.70 1020.95 1021.31 1021.78 1022.37 1023.03 1023.74 1024.44 1025.08 1025.62 1026.03 1026.31 1026.44 1026.46 1026.37 1026.21 1025.99 1025.74 1025.48 1025.22 1024.98 1024.78 1024.62 1024.52 1024.47 1024.46 1024.49 1024.53 1024.58 1024.62 1024.65 1024.67 1024.68
1018.58 1018.71 1018.91 1019.17 1019.47 1019.76 1020.02 1020.24 1020.42 1020.59 1020.77 1021.00 1021.32 1021.73 1022.24 1022.83 1023.47 1024.12 1024.73 1025.29 1025.74 1026.09 1026.33 1026.46 1026.49 1026.44 1026.31 1026.14 1025.92 1025.69 1025.47 1025.27 1025.10 1024.99 1024.94 1024.94 1024.98 1025.05 1025.13 1025.21 1025.27 1025.32 1025.35
1018.61 1018.75 1018.95 1019.21 1019.50 1019.80 1020.07 1020.31 1020.51 1020.70 1020.88 1021.10 1021.38 1021.73 1022.16 1022.67 1023.22 1023.81 1024.38 1024.92 1025.41 1025.82 1026.14 1026.39 1026.54 1026.60 1026.58 1026.49 1026.35 1026.16 1025.96 1025.76 1025.60 1025.48 1025.42 1025.42 1025.47 1025.56 1025.67 1025.79 1025.88 1025.96 1026.01
1018.59 1018.75 1018.96 1019.21 1019.50 1019.80 1020.09 1020.35 1020.58 1020.78 1020.98 1021.20 1021.45 1021.75 1022.12 1022.54 1023.02 1023.53 1024.05 1024.57 1025.06 1025.52 1025.92 1026.26 1026.53 1026.71 1026.81 1026.82 1026.75 1026.63 1026.46 1026.29 1026.13 1026.01 1025.94 1025.93 1025.99 1026.08 1026.21 1026.34 1026.46 1026.56 1026.64
1018.51 1018.69 1018.90 1019.16 1019.45 1019.75 1020.05 1020.33 1020.58 1020.81 1021.03 1021.26 1021.50 1021.77 1022.09 1022.45 1022.85 1023.29 1023.76 1024.24 1024.73 1025.22 1025.68 1026.10 1026.47 1026.76 1026.97 1027.08 1027.11 1027.06 1026.95 1026.81 1026.66 1026.55 1026.47 1026.45 1026.49 1026.58 1026.70 1026.83 1026.96 1027.07 1027.16
1018.35 1018.56 1018.79 1019.06 1019.35 1019.65 1019.96 1020.25 1020.53 1020.78 1021.02 1021.26 1021.50 1021.76 1022.05 1022.36 1022.71 1023.09 1023.51 1023.95 1024.42 1024.91 1025.41 1025.89 1026.33 1026.71 1027.02 1027.24 1027.36 1027.39 1027.35 1027.25 1027.14 1027.03 1026.96 1026.92 1026.94 1027.00 1027.09 1027.20 1027.31 1027.42 1027.51
1018.14 1018.39 1018.65 1018.93 1019.22 1019.52 1019.83 1020.13 1020.41 1020.68 1020.95 1021.20 1021.46 1021.72 1021.99 1022.28 1022.58 1022.92 1023.28 1023.69 1024.12 1024.60 1025.09 1025.60 1026.09 1026.53 1026.92 1027.22 1027.43 1027.54 1027.58 1027.54 1027.47 1027.39 1027.31 1027.26 1027.25 1027.27 1027.32 1027.39 1027.47 1027.55 1027.63
1017.89 1018.18 1018.48 1018.77 1019.07 1019.37 1019.67 1019.96 1020.25 1020.53 1020.80 1021.08 1021.35 1021.62 1021.89 1022.17 1022.45 1022.74 1023.06 1023.42 1023.81 1024.25 1024.72 1025.21 1025.72 1026.20 1026.63 1027.00 1027.28 1027.47 1027.58 1027.61 1027.59 1027.54 1027.47 1027.41 1027.37 1027.35 1027.35 1027.37 1027.40 1027.45 1027.50
1017.60 1017.95 1018.28 1018.60 1018.90 1019.19 1019.47 1019.75 1020.02 1020.30 1020.59 1020.87 1021.16 1021.45 1021.73 1022.00 1022.26 1022.53 1022.81 1023.12 1023.46 1023.85 1024.27 1024.73 1025.22 1025.70 1026.16 1026.56 1026.90 1027.16 1027.34 1027.44 1027.47 1027.46 1027.41 1027.35 1027.29 1027.23 1027.18 1027.15 1027.13 1027.13 1027.15
1017.25 1017.66 1018.03 1018.37 1018.67 1018.95 1019.21 1019.46 1019.72 1019.98 1020.26 1020.56 1020.86 1021.17 1021.46 1021.74 1022.01 1022.26 1022.51 1022.77 1023.06 1023.39 1023.75 1024.17 1024.61 1025.07 1025.53 1025.95 1026.33 1026.64 1026.87 1027.03 1027.12 1027.15 1027.14 1027.09 1027.02 1026.93 1026.85 1026.76 1026.70 1026.65 1026.65
1016.81 1017.27 1017.67 1018.03 1018.33 1018.59 1018.82 1019.05 1019.28 1019.53 1019.81 1020.11 1020.43 1020.75 1021.07 1021.37 1021.64 1021.89 1022.12 1022.35 1022.59 1022.87 1023.18 1023.53 1023.93 1024.35 1024.79 1025.21 1025.61 1025.95 1026.24 1026.45 1026.60 1026.67 1026.69 1026.67 1026.60 1026.50 1026.39 1026.28 1026.18 1026.10 1026.06
1016.24 1016.74 1017.16 1017.52 1017.81 1018.05 1018.26 1018.45 1018.66 1018.90 1019.18 1019.49 1019.83 1020.18 1020.53 1020.86 1021.15 1021.41 1021.63 1021.85 1022.06 1022.29 1022.55 1022.86 1023.21 1023.60 1024.01 1024.42 1024.82 1025.18 1025.50 1025.76 1025.95 1026.07 1026.13 1026.14 1026.09 1026.00 1025.89 1025.76 1025.64 1025.54 1025.48
1015.51 1016.02 1016.45 1016.80 1017.08 1017.29 1017.48 1017.66 1017.86 1018.10 1018.38 1018.72 1019.08 1019.47 1019.85 1020.21 1020.53 1020.81 1021.04 1021.25 1021.45 1021.66 1021.89 1022.16 1022.47 1022.83 1023.21 1023.61 1024.00 1024.38 1024.71 1025.00 1025.23 1025.39 1025.50 1025.53 1025.52 1025.45 1025.35 1025.23 1025.10 1024.99 1024.91
Thickness
5709 5708 5707 5706 5706 5705 5704 5703 5703 5702 5701 5701 5701 5701 5701 5702 5703 5703 5705 5706 5708 5709 5709 5709 5709 5708 5709 5708 5708 5707 5707 5707 5707 5707 5707 5707 5707 5707 5708 5708 5708 5708 5708
5706 5705 5703 5702 5701 5701 5700 5699 5698 5697 5696 5696 5696 5696 5696 5696 5697 5698 5698 5700 5701 5702 5703 5703 5703 5703 5702 5702 5702 5701 5701 5701 5701 5701 5701 5701 5701 5701 5701 5702 5702 5703 5703
5703 5701 5700 5698 5697 5696 5696 5695 5694 5693 5692 5691 5690 5690 5690 5690 5691 5692 5692 5693 5694 5695 5695 5696 5696 5696 5696 5696 5696 5696 5695 5695 5695 5695 5695 5695 5695 5695 5695 5695 5696 5697 5698
5700 5698 5696 5694 5693 5692 5691 5690 5689 5687 5686 5685 5684 5684 5684 5685 5685 5686 5686 5686 5687 5687 5688 5689 5690 5690 5690 5690 5690 5690 5689 5689 5689 5689 5689 5689 5689 5689 5689 5689 5690 5691 5691
5697 5695 5693 5691 5690 5689 5687 5687 5684 5683 5680 5679 5679 5678 5678 5679 5679 5680 5680 5680 5680 5681 5681 5682 5683 5683 5684 5684 5684 5683 5683 5683 5683 5683 5683 5683 5683 5683 5683 5683 5684 5685 5685
5694 5692 5690 5688 5687 5685 5683 5682 5680 5679 5677 5676 5675 5673 5672 5672 5673 5673 5673 5674 5674 5674 5674 5675 5675 5676 5676 5677 5678 5677 5677 5677 5677 5677 5677 5677 5677 5677 5677 5677 5678 5678 5679
5691 5690 5688 5686 5684 5682 5680 5678 5677 5674 5672 5671 5670 5667 5667 5667 5666 5666 5666 5667 5667 5668 5668 5668 5668 5669 5669 5670 5671 5671 5670 5671 5671 5671 5671 5671 5671 5671 5671 5671 5672 5672 5673
5689 5687 5685 5683 5681 5679 5677 5675 5674 5671 5669 5668 5665 5662 5658 5658 5659 5660 5660 5660 5660 5661 5661 5661 5662 5662 5662 5663 5663 5663 5664 5664 5665 5665 5665 5665 5665 5665 5665 5665 5665 5666 5667
5687 5685 5683 5681 5679 5677 5674 5673 5671 5669 5666 5664 5663 5660 5654 5650 5650 5652 5652 5653 5653 5653 5654 5654 5655 5655 5656 5656 5657 5657 5658 5658 5659 5659 5659 5659 5659 5659 5659 5659 5659 5660 5660
5683 5682 5680 5678 5676 5675 5673 5671 5669 5667 5665 5661 5659 5657 5655 5653 5648 5644 5645 5646 5647 5647 5648 5648 5648 5649 5649 5650 5651 5651 5651 5652 5652 5653 5653 5653 5653 5653 5653 5654 5654 5654 5655
5680 5679 5677 5675 5674 5672 5670 5669 5667 5665 5663 5660 5657 5654 5651 5648 5646 5643 5639 5639 5640 5641 5642 5643 5643 5643 5644 5645 5645 5645 5645 5646 5646 5647 5647 5647 5647 5647 5648 5648 5648 5648 5649
5676 5675 5674 5673 5671 5670 5668 5666 5665 5662 5660 5658 5655 5653 5650 5646 5643 5640 5636 5634 5634 5635 5637 5638 5638 5638 5639 5639 5640 5640 5640 5640 5640 5640 5641 5641 5641 5642 5642 5643 5643 5643 5643
5672 5672 5672 5670 5669 5667 5665 5664 5662 5660 5657 5655 5653 5650 5648 5646 5643 5639 5635 5630 5629 5630 5631 5633 5634 5634 5634 5634 5635 5635 5635 5635 5635 5635 5635 5635 5635 5635 5636 5637 5637 5637 5637
5671 5670 5669 5668 5667 5665 5663 5661 5658 5656 5654 5652 5650 5648 5645 5643 5641 5639 5635 5629 5626 5625 5626 5628 5630 5630 5630 5630 5630 5630 5630 5630 5630 5630 5630 5630 5630 5630 5630 5630 5631 5631 5631
5668 5667 5666 5664 5663 5661 5659 5657 5654 5652 5650 5648 5646 5644 5642 5640 5638 5636 5634 5631 5626 5622 5622 5624 5625 5627 5626 5626 5626 5625 5625 5625 5625 5625 5624 5624 5624 5624 5624 5624 5625 5625 5625
5664 5663 5661 5660 5659 5657 5655 5652 5650 5648 5646 5644 5642 5640 5638 5636 5634 5632 5630 5628 5626 5623 5619 5621 5621 5622 5622 5622 5621 5620 5620 5620 5620 5619 5619 5619 5619 5619 5619 5619 5619 5619 5619
5660 5659 5657 5656 5654 5652 5651 5648 5646 5644 5641 5639 5637 5635 5634 5632 5630 5627 5625 5623 5621 5620 5617 5616 5616 5617 5617 5616 5616 5615 5615 5615 5615 5614 5614 5614 5614 5614 5614 5614 5614 5614 5614
5655 5654 5653 5651 5649 5648 5646 5644 5641 5639 5637 5635 5633 5631 5629 5628 5626 5624 5621 5620 5618 5616 5614 5612 5611 5611 5611 5611 5611 5610 5610 5610 5609 5609 5609 5609 5609 5609 5609 5609 5609 5609 5609
5649 5648 5647 5646 5644 5643 5641 5639 5637 5635 5633 5632 5630 5628 5626 5623 5621 5619 5617 5616 5614 5613 5610 5608 5606 5605 5605 5605 5605 5604 5604 5604 5604 5604 5604 5604 5604 5604 5604 5604 5604 5604 5604
5644 5643 5642 5641 5640 5638 5636 5634 5632 5630 5629 5627 5626 5624 5622 5620 5618 5616 5614 5612 5610 5608 5605 5603 5601 5599 5599 5599 5598 5597 5597 5597 5598 5599 5598 5598 5598 5598 5598 5599 5599 5599 5599
5640 5638 5637 5635 5634 5633 5632 5629 5627 5626 5623 5622 5620 5619 5618 5617 5615 5613 5612 5609 5607 5604 5601 5598 5596 5594 5593 5592 5592 5591 5591 5590 5591 5591 5591 5592 5592 5593 5593 5593 5593 5594 5594
5634 5632 5631 5629 5628 5628 5628 5626 5623 5621 5619 5617 5615 5614 5613 5612 5611 5610 5608 5607 5605 5601 5597 5594 5592 5590 5590 5589 5587 5586 5584 5583 5584 5585 5584 5584 5586 5586 5587 5587 5588 5588 5590
5628 5626 5625 5624 5622 5622 5622 5621 5619 5616 5614 5612 5611 5609 5609 5609 5606 5604 5603 5602 5600 5598 5597 5594 5590 5589 5587 5586 5583 5580 5579 5579 5579 5579 5577 5578 5578 5579 5581 5581 5582 5582 5583
5622 5620 5619 5617 5616 5616 5616 5615 5613 5610 5608 5607 5606 5605 5603 5602 5601 5599 5597 5595 5593 5592 5592 5590 5589 5588 5586 5584 5581 5579 5577 5574 5573 5572 5572 5571 5572 5572 5574 5575 5576 5576 5576
5615 5614 5612 5611 5610 5610 5610 5609 5607 5604 5602 5600 5599 5599 5597 5596 5596 5594 5591 5588 5586 5586 5586 5585 5584 5582 5581 5579 5576 5572 5569 5567 5566 5566 5565 5564 5565 5564 5566 5567 5568 5568 5568
5609 5607 5605 5604 5604 5603 5603 5602 5601 5597 5595 5593 5592 5591 5591 5590 5589 5587 5584 5582 5580 5580 5579 5578 5576 5575 5574 5572 5571 5568 5566 5562 5560 5560 5559 5557 5557 5556 5558 5560 5560 5560 5560